Del Bajio, Mexico

6:35 AM CST on January 16, 2018 (GMT -0600)
De Guanajuato International

Weather History for MMLO - September, 2013

Change the Weather History Date:

Tuesday, September 24, 2013

  Actual Average Record
Temperature  
Mean Temperature 74 °F -  
Max Temperature 84 °F 79 °F 87 °F (2006)
Min Temperature 53 °F 56 °F 51 °F (2005)
Cooling Degree Days 9    
Growing Degree Days 24 (Base 50)    
Moisture  
Dew Point 59 °F    
Average Humidity 72    
Maximum Humidity 94    
Minimum Humidity 28    
Precipitation  
Precipitation 0.00 in - - ()
Sea Level Pressure  
Sea Level Pressure 30.01 in    
Wind  
Wind Speed 2 mph ()    
Max Wind Speed 12 mph    
Max Gust Speed -    
Visibility 8.2 miles    
Events      
Averages and records for this station are not official NWS values.
T = Trace of Precipitation, MM = Missing Value Source: Averaged Metar Reports

Daily Weather History Graph

Daily Weather History Graph

Search for Another Location

Airport or City:

Trip Planner

Search our weather history database for the weather conditions in past years. The results will help you decide how hot, cold, wet, or windy it might be!

Date:

Astronomy

Sep. 24, 2013 Rise Set
Actual Time 7:35 AM CDT 7:39 PM CDT
Civil Twilight 7:13 AM CDT 8:02 PM CDT
Nautical Twilight 6:47 AM CDT 8:27 PM CDT
Astronomical Twilight 6:21 AM CDT 8:53 PM CDT
Moon 11:37 PM CDT (9/24) 12:14 PM CDT (9/24)
Length of Visible Light 12h 48m
Length of Day
12h 04m
Waning Gibbous, 73% of the Moon is Illuminated
Sep 24
Waning Gibbous
Sep 26
Last Quarter
Oct 4
New
Oct 11
First Quarter
Oct 18
Full

Hourly Weather History & Observations

Time (CDT) Temp. Heat Index Dew Point Humidity Pressure Visibility Wind Dir Wind Speed Gust Speed Precip Events Conditions
12:44 AM 64.4 °F - 57.2 °F 77% 29.73 in 8.0 mi Calm Calm - N/A   Mostly Cloudy
2:44 AM 64.4 °F - 62.6 °F 94% 30.18 in 6.0 mi Calm Calm - N/A   Overcast
3:45 AM 64.4 °F - 62.6 °F 94% 29.73 in 7.0 mi Calm Calm - N/A   Overcast
4:44 AM 64.4 °F - 62.6 °F 94% 30.18 in 7.0 mi Calm Calm - N/A   Overcast
5:42 AM 64.4 °F - 62.6 °F 94% 30.18 in 7.0 mi Calm Calm - N/A   Overcast
6:45 AM 64.4 °F - 62.6 °F 94% 29.81 in 7.0 mi Calm Calm - N/A   Overcast
7:45 AM 64.4 °F - 62.6 °F 94% 30.18 in 7.0 mi Calm Calm - N/A   Mostly Cloudy
8:42 AM 66.2 °F - 62.6 °F 88% 30.21 in 6.0 mi Calm Calm - N/A   Mostly Cloudy
9:51 AM 73.4 °F - 62.6 °F 69% 29.83 in 7.0 mi Calm Calm - N/A   Mostly Cloudy
10:52 AM 73.4 °F - 62.6 °F 69% 30.21 in 8.0 mi SSW 4.6 mph - N/A   Mostly Cloudy
11:41 AM 75.2 °F - 62.6 °F 65% 30.21 in 9.0 mi Calm Calm - N/A   Mostly Cloudy
12:41 PM 80.6 °F 81.5 °F 60.8 °F 51% 29.77 in 9.0 mi North 4.6 mph - N/A   Mostly Cloudy
1:42 PM 84.2 °F 84.4 °F 60.8 °F 45% 30.15 in 10.0 mi SE 6.9 mph - N/A   Mostly Cloudy
2:47 PM 75.2 °F - 60.8 °F 61% 30.12 in 10.0 mi NNW 6.9 mph - N/A   Mostly Cloudy
3:46 PM 82.4 °F 82.9 °F 60.8 °F 48% 29.63 in 10.0 mi WSW 4.6 mph - N/A   Mostly Cloudy
4:40 PM 78.8 °F - 62.6 °F 57% 30.09 in 10.0 mi WNW 11.5 mph - N/A   Scattered Clouds
5:43 PM 75.2 °F - 60.8 °F 61% 30.06 in 10.0 mi WNW 5.8 mph - N/A   Scattered Clouds
6:47 PM 71.6 °F - 62.6 °F 73% 29.68 in 10.0 mi Calm Calm - N/A   Scattered Clouds
7:46 PM 68.0 °F - 62.6 °F 83% 30.09 in 8.0 mi Calm Calm - N/A   Scattered Clouds
8:41 PM 66.2 °F - 55.4 °F 68% 30.12 in 8.0 mi East 6.9 mph - N/A   Scattered Clouds
9:50 PM 66.2 °F - 50.0 °F 56% 29.75 in 8.0 mi NE 9.2 mph - N/A   Scattered Clouds
10:50 PM 66.2 °F - 32.0 °F 28% 30.16 in 8.0 mi NE 6.9 mph - N/A   Scattered Clouds
11:45 PM 53.6 °F - 48.2 °F 82% 30.17 in 8.0 mi East 6.9 mph - N/A   Scattered Clouds